THY65Y LTFM-LBSF

Flight info

Callsign THY65Y
Flight time N/A
Altitude 32000
Route VADEN1E/36 VADEN N618 GOL
Aircraft A320/M-SDE3FGHIRWY/LB1

Departure

Time 2026-05-05 11:18
Airport İstanbul Airport (LTFM)

Arrival

Time N/A
Airport Sofia Airport (LBSF)
Time Latitude Longitude Altitude Speed Heading
2026-05-05 11:01 41.26648 28.74702 178 ft 0 kts 89°
2026-05-05 11:09 41.26648 28.74698 178 ft 2 kts 89°
2026-05-05 11:10 41.26647 28.74675 178 ft 3 kts 83°
2026-05-05 11:10 41.26644 28.74649 178 ft 3 kts 71°
2026-05-05 11:10 41.26636 28.74625 178 ft 3 kts 47°
2026-05-05 11:10 41.26623 28.74613 178 ft 2 kts
2026-05-05 11:11 41.26615 28.74612 178 ft 0 kts 359°
2026-05-05 11:13 41.26621 28.74612 178 ft 6 kts 359°
2026-05-05 11:13 41.26734 28.74609 178 ft 17 kts 359°
2026-05-05 11:14 41.26827 28.74608 178 ft 10 kts
2026-05-05 11:14 41.26872 28.74680 178 ft 12 kts 89°
2026-05-05 11:14 41.26875 28.74836 178 ft 16 kts 88°
2026-05-05 11:14 41.26877 28.74984 179 ft 17 kts 89°
2026-05-05 11:15 41.26876 28.75151 179 ft 20 kts 90°
2026-05-05 11:15 41.26876 28.75303 179 ft 12 kts 94°
2026-05-05 11:15 41.26824 28.75373 179 ft 9 kts 175°
2026-05-05 11:15 41.26763 28.75375 179 ft 10 kts 179°
2026-05-05 11:16 41.26704 28.75375 179 ft 7 kts 180°
2026-05-05 11:16 41.26637 28.75377 179 ft 17 kts 178°
2026-05-05 11:16 41.26506 28.75380 179 ft 19 kts 179°
2026-05-05 11:16 41.26380 28.75383 179 ft 15 kts 176°
2026-05-05 11:17 41.26322 28.75483 179 ft 16 kts 93°
2026-05-05 11:17 41.26330 28.75638 180 ft 17 kts 60°
2026-05-05 11:17 41.26486 28.75666 178 ft 47 kts 359°
2026-05-05 11:17 41.27049 28.75658 180 ft 109 kts 359°
2026-05-05 11:18 41.27950 28.75639 183 ft 153 kts 359°
2026-05-05 11:18 41.29069 28.75606 655 ft 160 kts 359°
2026-05-05 11:18 41.30175 28.75834 1308 ft 164 kts 24°
2026-05-05 11:18 41.31093 28.76688 2032 ft 165 kts 40°
2026-05-05 11:19 41.32025 28.77727 2430 ft 185 kts 29°
2026-05-05 11:19 41.33315 28.78159 2715 ft 205 kts 353°
2026-05-05 11:19 41.34630 28.77293 3101 ft 227 kts 314°
2026-05-05 11:19 41.35604 28.75498 3613 ft 249 kts 304°
2026-05-05 11:20 41.36499 28.73485 4521 ft 255 kts 302°
2026-05-05 11:20 41.37368 28.71415 5489 ft 257 kts 302°
2026-05-05 11:20 41.38244 28.69319 6441 ft 261 kts 303°
2026-05-05 11:20 41.39147 28.67189 7305 ft 265 kts 303°
2026-05-05 11:21 41.40067 28.65049 8191 ft 268 kts 304°
2026-05-05 11:21 41.41009 28.62881 9074 ft 271 kts 304°
2026-05-05 11:21 41.41980 28.60723 9948 ft 274 kts 306°
2026-05-05 11:21 41.43027 28.58506 10377 ft 292 kts 306°
2026-05-05 11:22 41.44172 28.56132 10621 ft 315 kts 306°
2026-05-05 11:22 41.45383 28.53620 11108 ft 326 kts 306°
2026-05-05 11:22 41.46610 28.51051 11782 ft 331 kts 306°
2026-05-05 11:22 41.47850 28.48432 12464 ft 336 kts 306°
2026-05-05 11:23 41.49099 28.45784 13172 ft 340 kts 306°
2026-05-05 11:23 41.50365 28.43092 13852 ft 344 kts 306°
2026-05-05 11:23 41.51644 28.40367 14454 ft 348 kts 306°
2026-05-05 11:23 41.52919 28.37654 15056 ft 351 kts 306°
2026-05-05 11:24 41.54221 28.34887 15702 ft 354 kts 306°
2026-05-05 11:24 41.55534 28.32097 16301 ft 357 kts 306°
2026-05-05 11:24 41.56868 28.29265 16898 ft 361 kts 305°
2026-05-05 11:24 41.58211 28.26414 17507 ft 364 kts 305°
2026-05-05 11:25 41.59558 28.23547 18091 ft 367 kts 306°
2026-05-05 11:25 41.60917 28.20647 18693 ft 369 kts 306°
2026-05-05 11:25 41.62282 28.17728 19245 ft 372 kts 305°
2026-05-05 11:25 41.63658 28.14785 19789 ft 375 kts 305°
2026-05-05 11:26 41.65046 28.11813 20315 ft 378 kts 305°
2026-05-05 11:26 41.66445 28.08813 20840 ft 381 kts 305°
2026-05-05 11:26 41.67850 28.05798 21338 ft 384 kts 305°
2026-05-05 11:26 41.69274 28.02744 21831 ft 387 kts 304°
2026-05-05 11:27 41.70704 27.99676 22313 ft 390 kts 304°
2026-05-05 11:27 41.72148 27.96575 22775 ft 394 kts 304°
2026-05-05 11:27 41.73599 27.93450 23258 ft 397 kts 304°
2026-05-05 11:27 41.75058 27.90304 23718 ft 400 kts 304°
2026-05-05 11:28 41.76516 27.87159 24116 ft 403 kts 304°